User: anonymous   Login
Location: LDNL
(36.4545°S, 141.6685°E)
Time: 08:22:58
(UTC+10:00)
Language:

Tiangong - Orbit

View from above orbital plane
View from above orbital plane
View from above satellite
View from above satellite

Ground track
Ground track

The orbit data is extracted from the following two-line orbital elements,

1 48274U 21035A   24176.00600258  .00037405  00000-0  41049-3 0  9997
2 48274  41.4689  41.5342 0005057 269.9472  90.0788 15.62463612180168
Epoch (UTC): 24 June 2024 00:08:38
Eccentricity: 0.0005057
inclination: 41.4689°
perigee height: 377 km
apogee height: 384 km
right ascension of ascending node: 41.5342°
argument of perigee: 269.9472°
revolutions per day: 15.62463612
mean anomaly at epoch: 90.0788°
orbit number at epoch: 18016

The dashed part of the orbit path shows where the satellite is in the earth's shadow,  

DLR